Regional Weather Roundup
Issued by NWS Cleveland, OH

Home | Current Version | Previous Version | Text Only | Print | Product List | Glossary Off
Versions: 1 2 3 4 5 6 7 8 9 10 11 12 13 14 15 16 17 18 19 20 21 22 23 24 25 26 27 28 29 30 31 32 33 34 35 36 37 38 39 40 41 42 43 44 45 46 47 48 49 50

000
ASUS41 KCLE 211002
RWRCLE
OHIO REGIONAL WEATHER ROUNDUP
NATIONAL WEATHER SERVICE CLEVELAND, OH
500 AM EST SUN DEC 21 2014

NOTE: "FAIR" INDICATES FEW OR NO CLOUDS BELOW 12,000 FEET WITH NO
SIGNIFICANT WEATHER AND/OR OBSTRUCTIONS TO VISIBILITY.

OHZ001>008-015>018-024>027-034-035-043-044-211100-
   NORTHWEST OHIO

CITY           SKY/WX    TMP DP  RH WIND       PRES   REMARKS
DEFIANCE       CLOUDY    27  24  89 CALM      30.30S FOG
FINDLAY        PTCLDY    21  18  88 CALM      30.28S FOG
TOLEDO EXPRESS CLEAR     19  17  92 CALM      30.29S FOG
TOLEDO EXEC    PTCLDY    24  21  88 CALM      30.31S FOG
LIMA           CLEAR     26  22  84 CALM      30.28S FOG
$$

OHZ009>014-019>023-028>033-038-089-211100-
   NORTHEAST OHIO

CITY           SKY/WX    TMP DP  RH WIND       PRES   REMARKS
CLE-HOPKINS    CLOUDY    29  23  78 S3        30.32S
CLE-LAKEFRONT  CLOUDY    31  23  72 SW5       30.30S WCI  26
CUY CO. ARPT   NOT AVBL
LORAIN-ELYRIA  CLOUDY    28  25  88 CALM      30.30S
ASHTABULA      CLOUDY    29  24  82 CALM      30.29S
AKRON-CANTON   CLOUDY    28  22  78 CALM      30.27F
WOOSTER        CLOUDY    28  23  81 CALM      30.28F
MANSFIELD      CLOUDY    28  23  81 CALM      30.26F
YOUNGSTOWN     CLOUDY    28  23  81 CALM      30.26F
$$

OHZ042-051>053-060>062-070>072-077>081-211100-
  SOUTHWEST OHIO

CITY           SKY/WX    TMP DP  RH WIND       PRES   REMARKS
CINC-COVINGTON CLOUDY    31  22  69 CALM      30.28F
CINC-LUNKEN    MOCLDY    24  23  96 CALM      30.32F FOG
HAMILTON       CLEAR     17  14  88 CALM      30.31F
DAYTON         PTCLDY    23  20  88 NE3       30.29S FOG
WRIGHT-PAT AFB CLEAR     25  20  83 CALM      30.29S
DAYTON GENERAL CLEAR     23  22  96 E3        30.28S FOG
WILMINGTON     MOCLDY    23  19  85 CALM      30.28S FOG
$$

OHZ036-037-039>041-045>050-054>059-063>069-073>076-082>088-211100-
  CENTRAL AND SOUTHEAST OHIO

CITY           SKY/WX    TMP DP  RH WIND       PRES   REMARKS
COLUMBUS       CLOUDY    30  23  75 N3        30.29F
OSU AIRPORT    CLOUDY    29  24  82 CALM      30.29F
BOLTON FIELD   NOT AVBL
RICKENBACK AFB NOT AVBL
NEWARK         CLOUDY    31  25  78 CALM      30.28F
MARION         CLOUDY    27  23  85 CALM      30.28F FOG
LANCASTER      CLOUDY    34  27  75 CALM      30.29F HAZE
ZANESVILLE     CLOUDY    29  24  82 CALM      30.29F
NEW PHILLY     CLOUDY    30  23  75 CALM      30.29F
$$


USA.gov is the U.S. government's official web portal to all federal, state and local government web resources and services.